Varna, Bulgaria

4:42 AM EEST on July 16, 2019 (GMT +0300)
Varna

Weather History for LBWN - July, 2019

Change the Weather History Date:

Monday, July 15, 2019

  Actual Average Record
Temperature  
Mean Temperature 70 °F -  
Max Temperature 80 °F 80 °F 95 °F (2002)
Min Temperature 60 °F 64 °F 53 °F (2000)
Cooling Degree Days 5    
Growing Degree Days 20 (Base 50)    
Moisture  
Dew Point 57 °F    
Average Humidity 66    
Maximum Humidity 88    
Minimum Humidity 32    
Precipitation  
Precipitation 0.00 in 0.05 in - ()
Sea Level Pressure  
Sea Level Pressure 29.76 in    
Wind  
Wind Speed 7 mph ()    
Max Wind Speed 14 mph    
Max Gust Speed -    
Visibility 7.0 miles    
Events Rain    
Averages and records for this station are not official NWS values.
T = Trace of Precipitation, MM = Missing Value Source: Averaged Metar Reports

Daily Weather History Graph

Daily Weather History Graph

Search for Another Location

Airport or City:

Astronomy

Jul. 15, 2019 Rise Set
Actual Time 5:41 AM EEST 8:46 PM EEST
Civil Twilight 5:07 AM EEST 9:20 PM EEST
Nautical Twilight 4:23 AM EEST 10:04 PM EEST
Astronomical Twilight 3:30 AM EEST 10:56 PM EEST
Moon 7:47 PM EEST (7/15) 4:13 AM EEST (7/15)
Length of Visible Light 16h 13m
Length of Day
15h 04m
Waxing Gibbous, 98% of the Moon is Illuminated
Jul 15
Waxing Gibbous
Jul 17
Full
Jul 25
Last Quarter
Aug 1
New
Aug 7
First Quarter

Hourly Weather History & Observations

Time (EEST) Temp. Heat Index Dew Point Humidity Pressure Visibility Wind Dir Wind Speed Gust Speed Precip Events Conditions
12:00 AM 63 °F - 59 °F 82% 29.74 in 6 mi NW 8.9 mph - - Rain Light Rain Showers
12:00 AM 64.4 °F - 57.2 °F 77% 29.74 in 6.2 mi NNW 4.6 mph - N/A   Partly Cloudy
12:30 AM 64.4 °F - 57.2 °F 77% 29.74 in 6.2 mi WNW 5.8 mph - N/A   Partly Cloudy
1:00 AM 62.6 °F - 57.2 °F 82% 29.74 in - West 5.8 mph - N/A   Clear
1:30 AM 62.6 °F - 57.2 °F 82% 29.74 in - West 6.9 mph - N/A   Clear
2:00 AM 62.6 °F - 57.2 °F 82% 29.74 in - West 6.9 mph - N/A   Clear
2:30 AM 60.8 °F - 57.2 °F 88% 29.74 in - Variable 2.3 mph - N/A   Clear
3:00 AM 62.6 °F - 57.2 °F 82% 29.74 in - West 5.8 mph - N/A   Clear
3:30 AM 62.6 °F - 59.0 °F 88% 29.74 in 6.2 mi WNW 4.6 mph - N/A   Partly Cloudy
4:00 AM 60.8 °F - 57.2 °F 88% 29.74 in 6.2 mi West 10.4 mph - N/A   Partly Cloudy
4:30 AM 60.8 °F - 57.2 °F 88% 29.74 in 6.2 mi WNW 8.1 mph - N/A   Partly Cloudy
5:00 AM 60.8 °F - 57.2 °F 88% 29.74 in 6.2 mi WNW 8.1 mph - N/A   Partly Cloudy
5:30 AM 60.8 °F - 57.2 °F 88% 29.74 in 6.2 mi West 8.1 mph - N/A   Partly Cloudy
6:00 AM 60.8 °F - 57.2 °F 88% 29.74 in 6.2 mi West 9.2 mph - N/A   Scattered Clouds
6:30 AM 60.8 °F - 57.2 °F 88% 29.74 in 6.2 mi WNW 10.4 mph - N/A   Scattered Clouds
7:00 AM 62.6 °F - 57.2 °F 82% 29.74 in 6.2 mi WSW 5.8 mph - N/A   Mostly Cloudy
7:30 AM 62.6 °F - 57.2 °F 82% 29.74 in 6.2 mi West 10.4 mph - N/A   Scattered Clouds
8:00 AM 60.8 °F - 57.2 °F 88% 29.74 in 6.2 mi West 9.2 mph - N/A   Scattered Clouds
8:30 AM 64.4 °F - 59.0 °F 83% 29.77 in 6.2 mi West 10.4 mph - N/A   Scattered Clouds
9:00 AM 68 °F - 60 °F 68% 29.77 in 12 mi WNW 6.7 mph - -   Scattered Clouds
9:00 AM 66.2 °F - 59.0 °F 78% 29.77 in 6.2 mi WNW 9.2 mph - N/A   Partly Cloudy
9:30 AM 68.0 °F - 59.0 °F 73% 29.77 in 6.2 mi WNW 12.7 mph - N/A   Partly Cloudy
10:00 AM 68.0 °F - 59.0 °F 73% 29.77 in 6.2 mi WNW 13.8 mph - N/A   Partly Cloudy
10:30 AM 71.6 °F - 59.0 °F 64% 29.77 in 6.2 mi NW 11.5 mph - N/A   Partly Cloudy
11:00 AM 71.6 °F - 59.0 °F 64% 29.77 in 6.2 mi NW 13.8 mph - N/A   Partly Cloudy
11:30 AM 75.2 °F - 59.0 °F 57% 29.77 in 6.2 mi NW 12.7 mph - N/A   Scattered Clouds
12:00 PM 74 °F - 58 °F 46% 29.77 in 12 mi WNW 6.7 mph - -   Partly Cloudy
12:00 PM 73.4 °F - 57.2 °F 57% 29.77 in 6.2 mi NW 10.4 mph - N/A   Mostly Cloudy
12:30 PM 77.0 °F - 57.2 °F 50% 29.77 in 6.2 mi WNW 8.1 mph - N/A   Scattered Clouds
1:00 PM 77.0 °F - 53.6 °F 44% 29.77 in 6.2 mi NW 10.4 mph - N/A   Scattered Clouds
1:30 PM 77.0 °F - 53.6 °F 44% 29.77 in 6.2 mi NW 6.9 mph - N/A   Scattered Clouds
2:00 PM 78.8 °F - 55.4 °F 44% 29.77 in - NNW 9.2 mph - N/A   Clear
2:30 PM 78.8 °F - 53.6 °F 42% 29.77 in - WNW 8.1 mph - N/A   Clear
3:00 PM 78 °F - 62 °F 47% 29.78 in 12 mi SE 2.2 mph - -   Partly Cloudy
3:00 PM 78.8 °F - 53.6 °F 42% 29.77 in - NNW 9.2 mph - N/A   Clear
3:30 PM 80.6 °F 80.3 °F 53.6 °F 39% 29.77 in - NW 6.9 mph - N/A   Clear
4:00 PM 80.6 °F - 50.0 °F 34% 29.74 in - NW 6.9 mph - N/A   Clear
4:30 PM 78.8 °F - 50.0 °F 36% 29.74 in - West 8.1 mph - N/A   Clear
5:30 PM 80.6 °F - 48.2 °F 32% 29.74 in - West 8.1 mph - N/A   Clear
6:00 PM 74 °F - 62 °F 57% 29.77 in 12 mi ESE 2.2 mph - -   Partly Cloudy
6:00 PM 80.6 °F - 50.0 °F 34% 29.74 in - West 10.4 mph - N/A   Clear
6:30 PM 78.8 °F - 59.0 °F 51% 29.74 in - Variable 6.9 mph - N/A   Clear
7:00 PM 75.2 °F - 59.0 °F 57% 29.77 in - East 11.5 mph - N/A   Clear
7:30 PM 73.4 °F - 59.0 °F 61% 29.77 in 6.2 mi East 10.4 mph - N/A   Scattered Clouds
8:00 PM 73.4 °F - 59.0 °F 61% 29.77 in 6.2 mi ESE 8.1 mph - N/A   Scattered Clouds
8:30 PM 71.6 °F - 60.8 °F 69% 29.77 in 6.2 mi ESE 8.1 mph - N/A   Scattered Clouds
9:00 PM 71 °F - 64 °F 71% 29.78 in 12 mi ESE 2.2 mph - -   Mostly Cloudy
9:00 PM 71.6 °F - 60.8 °F 69% 29.80 in 6.2 mi NNW 5.8 mph - N/A   Scattered Clouds
9:30 PM 69.8 °F - 57.2 °F 64% 29.80 in 6.2 mi NNW 6.9 mph - N/A   Scattered Clouds
10:00 PM 69.8 °F - 57.2 °F 64% 29.80 in 6.2 mi North 5.8 mph - N/A   Scattered Clouds
10:30 PM 68.0 °F - 57.2 °F 68% 29.80 in - NNW 4.6 mph - N/A   Clear
11:30 PM 66.2 °F - 59.0 °F 78% 29.80 in - WSW 5.8 mph - N/A   Clear